EN

Hourly Weather Godziszewo

Today, 16 May, Sunday

Time Temperature Precipitation Wind Pressure Humidity
00:00 +10°C° 0.4 mm 2 mps 747 mmHg 92%
01:00 +10°C° 0 mm 2 mps 747 mmHg 93%
02:00 +10°C° 0.6 mm 2 mps 747 mmHg 93%
03:00 +10°C° 0.6 mm 2 mps 747 mmHg 94%
04:00 +10°C° 0.6 mm 3 mps 747 mmHg 94%
05:00 +10°C° 0.3 mm 3 mps 747 mmHg 94%
06:00 +10°C° 0.3 mm 2 mps 746 mmHg 93%
07:00 +10°C° 0.3 mm 2 mps 746 mmHg 93%
08:00 +12°C° 0.4 mm 2 mps 746 mmHg 92%
09:00 +12°C° 0.4 mm 2 mps 746 mmHg 91%
10:00 +13°C° 0.4 mm 2 mps 746 mmHg 91%
11:00 +14°C° 0.4 mm 2 mps 746 mmHg 85%
12:00 +14°C° 0.4 mm 3 mps 746 mmHg 79%
13:00 +16°C° 0.4 mm 3 mps 746 mmHg 74%
14:00 +17°C° 0.5 mm 3 mps 745 mmHg 73%
15:00 +17°C° 0.5 mm 3 mps 745 mmHg 73%
16:00 +17°C° 0.5 mm 3 mps 745 mmHg 72%
17:00 +16°C° 0.5 mm 3 mps 745 mmHg 77%
18:00 +15°C° 0.5 mm 2 mps 745 mmHg 81%
19:00 +14°C° 0.5 mm 2 mps 745 mmHg 85%
20:00 +13°C° 0 mm 2 mps 745 mmHg 87%
21:00 +12°C° 0 mm 2 mps 745 mmHg 90%
22:00 +10°C° 0 mm 3 mps 745 mmHg 92%
23:00 +9°C° 0 mm 3 mps 746 mmHg 93%

Tomorrow, 17 May, Monday

Time Temperature Precipitation Wind Pressure Humidity
00:00 +9°C° 0 mm 3 mps 746 mmHg 93%
01:00 +8°C° 0 mm 3 mps 746 mmHg 94%
02:00 +8°C° 0 mm 2 mps 746 mmHg 94%
03:00 +8°C° 0 mm 2 mps 746 mmHg 94%
04:00 +7°C° 0 mm 2 mps 746 mmHg 94%
05:00 +9°C° 0 mm 2 mps 746 mmHg 89%
06:00 +12°C° 0 mm 2 mps 746 mmHg 85%
07:00 +12°C° 0 mm 3 mps 746 mmHg 81%
08:00 +14°C° 0.1 mm 3 mps 746 mmHg 75%
09:00 +16°C° 0.1 mm 3 mps 746 mmHg 69%
10:00 +17°C° 0.1 mm 4 mps 746 mmHg 63%
11:00 +18°C° 0.2 mm 4 mps 746 mmHg 60%
12:00 +18°C° 0.2 mm 3 mps 746 mmHg 57%
13:00 +19°C° 0.2 mm 3 mps 746 mmHg 54%
14:00 +17°C° 0.3 mm 3 mps 746 mmHg 63%
15:00 +15°C° 0.3 mm 4 mps 746 mmHg 71%
16:00 +14°C° 0.3 mm 4 mps 747 mmHg 80%
17:00 +13°C° 1.4 mm 3 mps 747 mmHg 85%
18:00 +12°C° 1.4 mm 3 mps 747 mmHg 90%
19:00 +12°C° 1.4 mm 2 mps 747 mmHg 95%
20:00 +10°C° 0.7 mm 2 mps 747 mmHg 95%
21:00 +11°C° 0.7 mm 1 mps 747 mmHg 96%
22:00 +11°C° 0.7 mm 1 mps 746 mmHg 96%
23:00 +11°C° 2.4 mm 1 mps 746 mmHg 97%

Day after tomorrow, 18 May, Tuesday

Time Temperature Precipitation Wind Pressure Humidity
00:00 +11°C° 2.4 mm 1 mps 746 mmHg 97%
01:00 +10°C° 2.4 mm 2 mps 746 mmHg 98%
02:00 +10°C° 1.6 mm 2 mps 746 mmHg 97%
03:00 +10°C° 1.6 mm 2 mps 746 mmHg 97%
04:00 +10°C° 1.6 mm 2 mps 746 mmHg 97%
05:00 +10°C° 1.4 mm 3 mps 746 mmHg 96%
06:00 +10°C° 1.4 mm 3 mps 746 mmHg 96%
07:00 +10°C° 1.4 mm 3 mps 746 mmHg 95%
08:00 +11°C° 0.6 mm 3 mps 746 mmHg 93%
09:00 +11°C° 0.6 mm 3 mps 747 mmHg 90%
10:00 +12°C° 0.6 mm 3 mps 747 mmHg 87%
11:00 +12°C° 0.3 mm 3 mps 747 mmHg 84%
12:00 +13°C° 0.3 mm 4 mps 747 mmHg 82%
13:00 +13°C° 0.3 mm 4 mps 747 mmHg 79%
14:00 +13°C° 0.3 mm 3 mps 747 mmHg 79%
15:00 +13°C° 0.3 mm 3 mps 747 mmHg 79%
16:00 +14°C° 0.3 mm 3 mps 748 mmHg 79%
17:00 +13°C° 0.2 mm 3 mps 748 mmHg 82%
18:00 +12°C° 0.2 mm 3 mps 748 mmHg 85%
19:00 +12°C° 0.2 mm 2 mps 749 mmHg 88%
20:00 +10°C° 0 mm 2 mps 749 mmHg 90%
21:00 +9°C° 0 mm 2 mps 749 mmHg 92%
22:00 +8°C° 0 mm 2 mps 749 mmHg 94%
23:00 +8°C° 0 mm 3 mps 749 mmHg 93%

19 May, Wednesday

Time Temperature Precipitation Wind Pressure Humidity
00:00 +7°C° 0 mm 3 mps 750 mmHg 93%
01:00 +7°C° 0 mm 3 mps 750 mmHg 93%
02:00 +7°C° 0 mm 3 mps 750 mmHg 93%
03:00 +5°C° 0 mm 3 mps 750 mmHg 94%
04:00 +5°C° 0 mm 3 mps 750 mmHg 94%
05:00 +7°C° 0 mm 4 mps 750 mmHg 90%
06:00 +10°C° 0 mm 4 mps 751 mmHg 85%
07:00 +11°C° 0 mm 4 mps 751 mmHg 81%
08:00 +12°C° 0 mm 4 mps 751 mmHg 74%
09:00 +14°C° 0 mm 5 mps 751 mmHg 68%
10:00 +15°C° 0 mm 5 mps 751 mmHg 61%
11:00 +15°C° 0 mm 5 mps 751 mmHg 61%
12:00 +15°C° 0 mm 5 mps 751 mmHg 61%
13:00 +15°C° 0 mm 5 mps 751 mmHg 60%
14:00 +14°C° 0 mm 5 mps 751 mmHg 61%
15:00 +14°C° 0 mm 5 mps 751 mmHg 61%
16:00 +14°C° 0 mm 5 mps 752 mmHg 62%
17:00 +12°C° 0 mm 4 mps 752 mmHg 65%
18:00 +11°C° 0 mm 4 mps 752 mmHg 68%
19:00 +10°C° 0 mm 4 mps 752 mmHg 72%
20:00 +9°C° 0 mm 3 mps 752 mmHg 77%
21:00 +8°C° 0 mm 3 mps 752 mmHg 82%
22:00 +5°C° 0 mm 3 mps 752 mmHg 87%
23:00 +5°C° 0 mm 3 mps 752 mmHg 89%

20 May, Thursday

Time Temperature Precipitation Wind Pressure Humidity
00:00 +5°C° 0 mm 3 mps 752 mmHg 90%
01:00 +5°C° 0 mm 4 mps 752 mmHg 92%
02:00 +5°C° 0 mm 4 mps 752 mmHg 92%
03:00 +5°C° 0 mm 4 mps 752 mmHg 92%
04:00 +5°C° 0 mm 4 mps 752 mmHg 92%
05:00 +7°C° 0 mm 4 mps 753 mmHg 86%
06:00 +8°C° 0 mm 4 mps 753 mmHg 80%
07:00 +10°C° 0 mm 5 mps 753 mmHg 74%
08:00 +12°C° 0 mm 4 mps 753 mmHg 68%
09:00 +14°C° 0 mm 4 mps 753 mmHg 62%
10:00 +15°C° 0 mm 4 mps 753 mmHg 55%
11:00 +15°C° 0.1 mm 5 mps 753 mmHg 57%
12:00 +15°C° 0.1 mm 5 mps 753 mmHg 58%
13:00 +14°C° 0.1 mm 5 mps 753 mmHg 59%
14:00 +14°C° 0.1 mm 5 mps 753 mmHg 59%
15:00 +14°C° 0.1 mm 5 mps 753 mmHg 60%
16:00 +14°C° 0.1 mm 4 mps 753 mmHg 60%
17:00 +13°C° 0.1 mm 4 mps 753 mmHg 64%
18:00 +11°C° 0.1 mm 3 mps 753 mmHg 68%
19:00 +10°C° 0.1 mm 3 mps 753 mmHg 73%
20:00 +9°C° 0 mm 3 mps 753 mmHg 76%
21:00 +8°C° 0 mm 3 mps 753 mmHg 79%
22:00 +7°C° 0 mm 2 mps 753 mmHg 82%
23:00 +7°C° 0 mm 3 mps 753 mmHg 86%

21 May, Friday

Time Temperature Precipitation Wind Pressure Humidity
00:00 +7°C° 0 mm 3 mps 753 mmHg 90%
01:00 +5°C° 0 mm 3 mps 753 mmHg 93%
02:00 +5°C° 0 mm 3 mps 753 mmHg 92%
03:00 +4°C° 0 mm 3 mps 753 mmHg 91%
04:00 +4°C° 0 mm 3 mps 753 mmHg 90%
05:00 +5°C° 0 mm 4 mps 753 mmHg 83%
06:00 +7°C° 0 mm 4 mps 753 mmHg 75%
07:00 +8°C° 0 mm 5 mps 752 mmHg 68%
08:00 +10°C° 0 mm 5 mps 752 mmHg 63%
09:00 +12°C° 0 mm 5 mps 752 mmHg 57%
10:00 +13°C° 0 mm 6 mps 752 mmHg 52%
11:00 +14°C° 0 mm 5 mps 752 mmHg 50%
12:00 +15°C° 0 mm 5 mps 751 mmHg 48%
13:00 +16°C° 0 mm 5 mps 751 mmHg 47%
14:00 +15°C° 0.1 mm 4 mps 751 mmHg 54%
15:00 +14°C° 0.1 mm 4 mps 750 mmHg 62%
16:00 +13°C° 0.1 mm 3 mps 750 mmHg 70%
17:00 +13°C° 0.1 mm 3 mps 750 mmHg 74%
18:00 +12°C° 0.1 mm 3 mps 750 mmHg 78%
19:00 +12°C° 0.1 mm 3 mps 749 mmHg 82%
20:00 +11°C° 0 mm 3 mps 749 mmHg 85%
21:00 +10°C° 0 mm 3 mps 749 mmHg 88%
22:00 +9°C° 0 mm 3 mps 749 mmHg 91%
23:00 +10°C° 0 mm 4 mps 748 mmHg 89%
Show more